Location: *
(43.9900°N, 3.4811°E)
Time: 04:01:03
(UTC+00:00)

Cosmos 1656 - Pass Details

Date: 25 August 2019
Orbit: 797 x 850 km, 71.1° (Epoch: 21 September)

Event Time Altitude Azimuth Distance (km) Brightness Sun altitude
Rises 19:03:49 0° 340° (NNW) 3,419 7.5 -5.8°
Reaches altitude 10° 19:06:31 10° 350° (N) 2,475 6.6 -6.2°
Maximum altitude 19:11:42 35° 55° (NE) 1,329 4.5 -7.1°
Drops below altitude 10° 19:16:47 10° 121° (ESE) 2,435 5.4 -7.9°
Enters shadow 19:16:57 - 122° (ESE) 2,490 5.5 -8.0°
